Theta_e
334 343 332 330 331 334 338 342 342 343 343 337 336 334 333 332 331 331 330 328 329 328 329 329 331 331 330 330 331 333 336 336 338 336 333 336 335 335 335 338 336 337 335
335 344 334 330 329 331 335 339 342 343 342 337 336 335 333 332 332 331 330 329 328 328 329 330 331 331 330 332 335 336 338 338 337 338 333 331 335 334 333 338 338 336 333
338 345 338 331 330 330 332 336 339 342 341 339 338 334 332 333 332 331 331 330 327 327 328 331 332 331 330 332 335 335 335 337 337 337 340 337 336 333 332 332 334 332 330
339 345 345 332 331 331 332 336 338 341 340 341 338 332 333 332 332 331 331 330 329 327 328 333 334 331 331 331 332 332 332 332 334 340 340 338 335 331 332 330 330 328 327
339 344 346 334 332 331 331 334 338 339 341 341 334 333 333 331 331 331 332 332 332 330 328 329 336 337 333 333 337 335 335 338 338 340 339 339 338 333 331 331 331 330 336
338 342 347 336 332 332 331 331 333 336 337 333 332 332 331 331 331 331 332 333 334 333 332 329 328 334 337 338 338 337 337 335 337 338 339 338 338 333 331 336 336 332 328
339 342 345 338 333 334 333 331 330 330 330 331 332 332 332 332 332 333 333 334 335 334 332 331 331 329 328 329 331 332 331 331 337 338 339 341 341 332 332 332 332 333 332
341 343 345 339 334 334 335 334 332 331 331 331 332 332 332 333 334 335 335 335 338 338 335 334 333 332 332 331 331 330 330 330 334 338 339 341 341 333 332 332 333 333 333
340 343 346 344 339 335 335 336 335 333 333 333 334 334 335 335 336 336 337 337 337 339 338 337 335 333 332 332 332 332 331 329 337 336 337 339 338 334 333 332 332 333 334
340 341 344 345 344 343 342 337 337 336 335 335 335 336 336 336 336 336 337 338 337 337 336 336 336 335 335 335 334 335 334 333 335 335 334 336 336 335 334 333 333 333 333
337 339 341 341 341 342 342 342 340 339 338 337 337 337 337 341 340 340 340 339 338 337 337 336 335 335 334 334 334 334 334 337 339 338 339 338 335 337 335 334 333 334 334
336 338 340 341 342 342 340 343 343 343 342 342 342 342 342 343 342 341 341 338 337 338 336 335 334 334 334 337 339 337 336 339 340 339 340 337 336 337 336 334 334 334 334
338 337 338 340 342 342 340 341 341 341 341 343 343 344 343 343 343 340 340 338 339 336 339 337 338 338 339 338 338 340 339 339 339 339 338 336 336 337 336 334 334 334 333
339 338 338 339 340 340 340 341 341 341 342 343 344 344 344 341 341 339 339 340 340 340 340 339 337 336 337 337 336 339 339 338 338 338 337 335 334 336 335 334 333 331 330
342 339 339 339 338 338 340 339 340 340 340 340 341 341 340 339 340 340 339 339 338 336 335 335 335 334 334 335 337 337 335 334 335 337 334 332 332 334 333 330 328 327 326
346 344 341 340 339 338 337 336 337 339 339 339 339 338 339 338 337 337 336 334 333 332 332 333 333 332 332 333 336 334 332 331 331 331 331 331 332 331 329 326 324 322 321
345 347 346 341 338 339 335 335 337 339 337 336 335 334 334 334 333 333 331 330 329 329 331 331 332 332 332 330 332 330 329 328 327 329 328 329 325 325 323 321 319 319 318
341 345 345 340 338 337 336 336 339 336 334 334 331 328 324 329 327 328 328 327 326 327 327 328 329 330 329 329 330 326 325 326 320 323 323 322 319 319 318 316 315 315 315
338 344 343 338 338 337 336 337 335 333 332 327 327 325 324 319 323 325 326 325 324 324 325 324 325 325 324 327 323 320 319 319 317 319 318 316 315 314 312 311 310 309 310
335 343 340 337 337 336 334 333 331 331 329 327 327 326 325 317 318 320 321 323 322 321 322 322 322 321 322 324 318 315 316 314 314 312 312 311 312 311 310 309 307 305 307
341 341 339 335 334 334 332 327 324 324 325 323 320 319 317 314 312 313 317 318 318 319 320 321 321 320 322 321 317 310 309 310 310 309 308 306 306 306 306 305 306 304 302
333 332 332 330 327 328 331 326 325 324 324 320 317 315 316 315 313 311 311 313 315 316 317 318 319 319 319 320 321 319 314 308 305 304 305 304 301 301 302 303 303 302 302
325 325 325 325 326 329 329 323 321 318 317 317 317 316 315 315 314 313 314 313 310 311 313 315 316 317 316 319 320 320 318 319 306 301 300 299 299 299 299 299 300 300 300
322 323 324 325 327 328 326 325 325 325 322 320 319 316 313 313 312 313 314 313 309 309 311 311 312 314 315 316 317 319 318 318 317 305 298 297 299 298 297 296 297 298 299
324 323 323 326 326 327 328 328 327 325 325 323 321 317 315 313 311 310 309 309 309 310 310 310 310 310 311 312 314 315 316 316 316 313 305 298 296 297 296 296 296 296 297
327 327 326 325 327 328 328 328 326 325 322 321 319 317 315 314 313 312 311 310 310 310 310 309 309 309 309 309 310 311 313 314 313 314 312 304 301 297 295 294 295 296 295
Wind_Speed
17 24 27 25 22 20 19 22 26 26 24 25 25 23 21 19 18 16 15 14 13 14 14 15 14 15 15 16 17 18 17 17 16 15 15 15 15 15 17 16 15 14 15
22 26 29 27 25 23 21 21 25 26 25 25 25 22 20 19 18 16 15 14 13 13 14 15 15 15 16 16 17 19 17 15 14 14 14 13 14 14 14 14 15 13 13
23 25 29 29 27 25 24 22 24 26 25 25 24 22 20 18 17 16 15 14 13 13 13 14 15 16 17 18 16 16 16 13 11 12 10 10 10 12 12 12 10 11 11
24 25 26 31 28 26 25 23 24 26 26 25 23 22 20 18 17 16 15 14 13 13 13 14 14 15 15 17 17 14 13 12 11 10 7 9 9 9 10 10 10 10 10
22 23 24 30 29 27 25 25 25 27 27 25 23 21 20 18 16 15 14 13 12 12 12 13 14 14 14 13 13 12 9 8 9 8 7 7 7 6 8 9 9 11 10
20 19 21 29 28 27 26 25 25 26 25 24 23 21 20 17 16 15 13 12 12 11 11 11 12 13 12 10 10 9 7 6 6 5 5 6 5 4 7 10 9 8 9
16 15 16 26 25 24 24 24 24 23 23 23 22 21 18 17 15 14 14 13 12 11 10 10 10 9 10 9 8 7 6 6 2 3 4 6 6 6 7 8 8 7 8
14 13 15 23 23 23 23 23 22 22 22 21 20 19 17 16 15 14 13 13 11 9 9 9 8 7 7 7 6 5 5 5 2 3 3 5 9 9 7 7 8 7 7
13 15 15 17 19 21 21 19 19 20 20 20 19 18 17 15 14 14 13 12 12 11 9 9 7 7 6 6 5 4 5 5 4 4 4 4 7 11 10 8 8 7 7
13 14 15 16 16 16 17 19 19 19 18 18 17 17 16 14 14 13 13 11 11 11 9 8 8 6 5 5 5 6 6 5 6 6 7 5 7 14 12 9 9 8 8
15 15 15 15 16 15 15 16 17 17 17 17 16 16 15 12 12 12 11 12 11 10 9 7 6 6 6 6 7 7 7 7 7 8 8 10 8 14 12 11 9 9 9
21 19 17 16 16 16 14 12 13 13 13 14 14 14 13 12 11 11 11 12 11 9 9 8 7 6 5 9 7 7 8 8 9 8 9 9 8 14 14 13 13 11 9
22 20 18 16 15 15 14 14 13 13 13 14 14 14 12 10 8 9 8 7 7 8 8 8 9 8 8 8 8 6 7 7 6 6 7 10 13 15 15 15 13 12 8
19 18 17 15 14 15 14 15 14 14 12 11 11 11 8 8 7 7 7 5 5 5 6 6 6 6 5 4 5 4 2 2 1 1 7 10 12 16 13 18 18 17 16
17 17 18 16 16 15 14 13 14 14 14 11 9 7 8 8 8 6 5 4 3 3 4 5 5 5 4 4 2 3 4 4 5 8 6 11 9 15 20 19 20 19 18
14 16 17 17 17 15 13 13 12 11 10 9 9 7 7 7 5 5 2 3 3 3 3 3 3 3 2 1 4 6 7 8 10 12 15 17 19 22 24 22 21 18 15
12 13 14 16 18 15 15 13 10 9 8 8 9 10 10 10 6 2 2 1 1 1 1 2 2 3 4 6 7 8 10 11 12 18 24 29 27 27 24 22 19 18 16
12 11 14 21 23 18 15 14 10 12 12 12 11 10 9 5 5 3 3 2 1 2 1 1 2 3 3 5 7 6 8 9 12 18 21 20 21 23 23 22 21 18 15
12 11 16 19 21 18 17 21 18 15 16 12 12 11 11 16 4 4 3 2 3 3 4 3 1 2 4 7 8 8 9 12 14 17 16 16 16 13 13 17 20 18 14
5 8 17 17 20 26 22 20 20 18 16 9 7 5 10 5 4 6 2 1 3 4 4 5 5 3 4 8 9 10 12 13 12 12 12 11 11 11 11 10 11 14 15
7 12 16 22 26 25 26 25 22 21 17 11 10 12 13 10 6 5 1 2 2 4 4 5 6 6 7 10 11 9 9 9 10 10 10 11 11 10 9 9 9 8 9
11 11 15 20 22 24 25 15 15 22 20 14 15 13 12 11 12 8 3 2 5 4 5 6 8 8 9 14 8 10 3 2 5 6 9 10 10 11 10 8 9 9 8
11 11 14 19 21 24 20 16 18 15 18 16 18 18 16 12 10 10 8 2 5 5 4 4 6 9 11 14 14 10 3 4 5 2 4 6 8 7 8 9 9 8 8
10 11 12 16 20 22 19 18 16 14 15 11 12 11 12 12 11 9 5 3 4 5 4 4 7 9 12 14 15 17 8 3 4 3 3 4 6 7 7 6 7 7 8
8 10 14 22 24 23 15 12 11 13 8 10 8 9 9 7 5 4 5 3 2 3 4 5 6 7 10 13 15 15 15 10 7 3 4 7 6 7 7 7 6 5 5
11 12 17 19 16 13 11 9 8 8 8 9 9 9 8 8 7 5 3 1 0 3 4 5 6 7 8 9 12 15 15 14 12 10 4 12 11 11 9 8 9 8 5
Wind_Direction
171 170 171 166 166 170 168 173 175 174 169 164 161 157 153 146 141 137 133 127 119 112 111 111 112 112 112 111 110 109 108 105 98 95 101 102 105 105 106 100 97 100 105
167 169 173 169 167 170 170 172 175 174 170 165 162 158 155 150 145 142 137 130 124 119 116 116 116 116 115 114 113 113 110 108 103 99 93 100 107 111 110 107 104 110 111
165 167 172 174 170 171 170 172 172 173 170 168 164 161 158 153 150 146 141 138 132 126 122 120 121 122 122 120 118 116 114 111 103 100 112 110 108 115 115 116 113 107 111
167 170 172 178 174 173 171 169 171 171 171 171 168 164 161 158 155 150 148 144 139 134 129 125 125 126 126 126 125 121 117 116 108 88 93 105 107 117 121 120 118 114 113
171 172 177 178 177 175 174 170 168 170 171 172 170 167 165 162 159 154 151 148 145 139 137 134 134 130 131 134 132 132 127 118 111 89 106 109 112 129 131 124 117 114 118
170 175 188 182 180 178 176 174 172 172 174 174 173 171 170 169 165 161 157 156 152 148 145 143 141 142 143 146 144 141 142 135 113 124 122 136 118 156 138 136 155 142 129
167 173 186 183 184 182 180 180 179 178 177 178 177 176 176 174 173 170 166 164 163 161 155 149 150 154 152 158 164 162 160 151 162 146 142 158 158 162 151 152 150 143 131
166 167 170 182 187 188 189 186 185 185 183 183 183 182 181 182 178 177 174 171 167 168 165 162 162 162 169 171 180 187 194 181 211 196 167 154 188 167 156 158 157 157 152
168 166 167 174 185 192 194 195 193 190 190 189 190 187 186 185 186 180 183 178 177 180 179 173 174 174 181 187 197 206 216 213 228 230 228 205 196 172 174 173 163 165 165
174 171 168 171 180 186 192 197 200 197 196 197 196 194 192 192 191 190 187 190 186 187 188 186 187 195 206 211 215 223 231 237 240 238 232 226 211 182 176 176 170 166 168
188 181 175 173 177 182 189 195 197 199 200 200 200 200 199 193 197 204 190 206 191 193 194 196 205 211 227 246 247 241 247 247 249 245 241 234 214 189 179 180 171 172 171
195 190 183 177 178 177 181 187 188 198 200 201 203 205 199 204 201 198 202 197 193 197 199 198 203 217 256 243 245 272 249 253 249 252 239 232 204 178 182 169 170 172 165
200 194 191 183 181 178 179 181 189 198 202 204 204 201 203 196 192 196 203 199 204 213 218 214 216 228 242 254 254 246 247 247 249 243 242 180 167 162 165 163 157 150 155
206 201 194 187 185 185 184 182 189 195 200 200 205 196 194 194 194 206 214 199 212 219 232 242 243 246 245 253 267 253 219 256 263 82 148 154 162 148 142 131 128 118 116
217 208 200 191 193 191 188 187 186 190 194 200 198 189 202 205 200 189 196 215 223 244 251 247 249 243 252 262 231 188 160 151 120 110 134 148 150 144 130 119 117 113 114
226 215 203 198 195 194 191 190 190 196 191 178 182 186 196 202 176 208 201 229 245 246 239 234 233 230 217 151 124 134 119 125 130 129 127 134 139 124 115 112 109 108 106
240 227 201 194 190 191 196 197 187 185 162 152 174 168 173 144 120 152 140 214 272 244 215 216 198 177 146 127 107 114 134 134 126 126 125 126 118 122 116 109 105 100 100
248 221 189 196 195 196 205 202 182 159 165 156 140 106 29 124 148 129 115 120 118 100 116 209 223 193 184 158 129 102 120 146 137 130 128 123 113 120 120 115 106 97 95
250 210 180 189 198 191 175 167 174 167 146 137 112 95 58 330 58 99 100 141 132 142 147 138 125 145 156 123 101 117 114 137 132 133 133 121 116 105 97 110 110 102 92
230 190 171 190 183 175 173 163 146 139 127 134 143 122 119 70 345 71 42 192 147 166 156 158 152 134 170 149 122 117 127 130 140 133 128 122 113 113 117 105 91 95 108
89 137 164 169 171 172 160 147 139 134 113 123 119 118 117 116 78 64 81 243 187 181 167 173 159 175 175 170 131 98 87 123 140 139 139 133 126 129 127 125 121 110 87
91 125 155 164 162 161 157 143 142 143 137 158 147 148 154 154 147 123 110 270 248 223 198 196 198 201 203 202 215 163 160 116 96 133 149 150 147 140 132 128 129 128 121
86 116 136 150 156 155 146 137 127 127 140 162 167 163 165 153 148 142 126 58 279 253 231 220 229 216 218 215 216 218 161 212 129 140 160 160 158 155 150 145 139 137 133
85 111 131 143 147 143 141 144 148 166 178 195 179 172 165 163 158 153 126 164 254 262 269 245 233 234 232 222 221 229 257 149 190 164 186 178 180 168 164 151 148 143 139
110 123 134 139 144 152 161 170 168 171 173 155 169 160 176 183 185 135 117 117 225 228 244 243 246 242 247 244 232 227 236 228 232 174 178 177 197 196 180 169 163 155 150
127 136 145 150 149 155 161 163 169 170 165 168 163 166 175 176 171 154 147 120 305 256 246 240 229 233 246 258 257 247 237 225 221 224 192 176 185 191 197 189 176 171 166